Wetbulb
31.94 28.35 25.71 26.64 28.00 28.17 26.84 25.45 24.13 24.50 29.16 27.81 24.84 25.59 27.66 29.77 28.55 27.71 27.39 27.30 27.69 28.77 29.85 29.98 30.12 29.92 30.22 31.30 31.37 31.80 32.29 33.09 34.31 36.94 40.58 44.35 44.51 45.44 45.52 46.24 46.59 47.05 47.84 49.10
29.38 26.50 29.78 31.07 29.82 28.60 27.19 25.18 24.11 27.43 28.70 27.85 25.47 24.23 27.35 28.85 28.20 27.84 27.47 27.41 27.63 28.27 28.92 29.20 29.55 29.17 28.71 29.11 29.85 31.34 31.58 32.05 32.63 34.51 36.91 41.16 44.34 44.56 43.88 44.22 44.06 44.49 44.91 45.88
26.95 29.08 32.15 29.82 27.84 27.93 26.63 25.23 24.79 25.46 27.32 26.51 25.00 23.99 25.45 28.25 28.58 27.92 27.23 27.72 27.93 27.35 27.47 28.18 28.44 28.38 28.38 28.41 28.52 30.14 31.03 31.43 31.76 32.50 34.09 35.24 37.17 37.50 36.54 37.70 40.20 41.73 42.61 43.49
28.12 30.32 29.21 28.83 27.85 27.94 25.41 28.65 28.00 26.73 23.40 19.18 24.03 15.42 22.61 24.92 24.59 24.98 24.83 24.75 25.71 26.40 27.32 27.70 27.79 28.30 28.06 28.29 29.07 29.84 30.96 31.34 31.98 31.54 31.80 31.20 30.44 30.34 32.94 34.57 37.03 37.98 40.10 41.23
26.20 27.18 27.94 27.60 28.54 29.32 26.86 29.20 27.41 26.61 23.03 20.97 21.61 16.44 20.25 23.32 22.40 22.88 24.05 24.64 25.13 26.04 26.41 27.03 27.44 28.10 28.96 28.61 28.70 29.59 30.63 31.58 31.66 31.04 30.65 30.58 30.05 30.49 31.43 32.20 33.48 34.66 36.10 38.15
26.99 29.81 28.42 28.58 29.56 29.50 28.28 24.77 24.17 22.09 20.83 8.60 18.56 16.90 18.58 21.23 23.15 22.69 23.89 24.13 24.74 25.10 25.75 26.90 27.65 28.20 28.60 29.00 29.46 30.45 30.53 31.54 32.26 31.63 30.99 30.26 29.54 29.63 29.48 29.63 30.24 31.89 33.55 34.77
25.59 25.91 27.82 29.80 27.41 28.63 26.06 21.56 8.49 9.17 6.47 8.77 16.68 16.45 19.10 21.82 22.88 23.88 22.94 23.88 23.99 24.54 25.19 25.30 25.21 26.43 27.01 28.28 29.15 31.17 30.96 31.64 32.55 32.44 32.20 31.17 30.72 30.42 29.41 29.15 29.22 29.70 30.81 31.81
19.35 18.30 25.87 28.23 25.98 24.89 24.75 21.71 12.79 7.04 6.37 9.88 18.77 12.60 19.64 22.72 23.79 24.20 24.41 24.17 24.24 23.40 23.82 24.35 25.28 25.68 26.29 28.00 29.32 30.51 31.07 30.73 31.67 31.94 32.41 32.71 32.07 31.54 30.99 30.17 29.64 29.62 30.15 31.46
19.25 19.78 25.43 27.47 27.31 26.01 24.56 17.48 21.33 7.00 0.71 6.77 13.61 18.83 23.07 22.55 21.44 21.69 21.78 22.59 21.24 22.04 23.69 24.35 25.27 25.56 27.64 28.97 29.18 28.88 28.66 28.99 28.97 29.13 29.55 30.22 30.97 30.30 29.82 29.98 29.53 29.04 29.50 30.40
23.83 17.87 24.59 25.83 26.34 26.84 25.10 25.32 16.53 11.52 3.78 1.54 9.14 12.07 17.42 18.98 19.77 21.12 20.22 19.88 20.43 22.26 23.30 24.26 25.24 26.66 27.02 27.05 27.26 27.28 27.14 26.89 27.15 27.61 27.55 27.49 27.52 28.43 28.75 28.91 28.01 28.15 28.28 28.76
24.09 22.61 20.11 23.79 21.74 21.51 21.11 17.61 17.95 17.43 13.14 5.22 2.45 12.11 20.02 22.51 22.03 20.62 20.00 20.88 20.24 21.74 22.07 22.92 23.89 24.95 24.84 24.49 24.07 24.11 24.56 25.19 24.85 25.28 25.59 25.29 25.30 25.64 26.08 26.00 26.08 26.79 27.89 27.96
26.55 21.23 13.85 18.04 20.02 20.25 21.85 21.42 18.76 10.63 8.37 9.16 8.60 12.71 23.34 20.92 21.09 20.57 20.91 22.05 21.63 23.42 22.41 22.44 23.24 23.46 22.49 21.55 21.47 21.12 22.55 23.47 23.23 23.18 22.87 22.46 22.53 22.59 22.52 22.66 23.44 25.04 25.19 26.90
25.97 15.80 6.19 13.88 17.45 19.00 19.32 21.46 18.73 10.00 10.10 8.88 6.50 13.05 21.19 21.03 19.69 20.46 19.49 20.75 22.30 23.02 21.80 22.15 22.72 21.02 20.98 20.07 19.38 19.03 20.52 21.54 21.57 21.00 19.86 19.76 19.45 19.40 19.13 19.00 20.76 22.04 23.14 24.80
28.63 14.56 14.18 16.03 17.28 16.92 16.88 19.08 18.03 13.61 5.82 6.29 11.67 8.72 16.73 18.72 18.06 18.36 19.35 20.67 20.41 21.27 21.64 21.34 20.83 21.15 19.78 19.60 17.67 16.99 17.87 19.66 19.30 18.51 17.28 16.47 16.75 16.79 16.56 15.80 15.79 17.25 19.86 21.93
24.39 13.75 10.00 10.68 13.94 14.90 17.16 17.63 17.59 13.91 13.97 13.81 13.34 14.40 15.08 18.60 17.19 14.49 18.85 20.56 20.74 20.33 20.41 20.39 20.28 19.99 18.55 17.91 15.53 13.62 14.31 16.27 17.28 15.09 13.04 11.13 13.55 14.22 12.84 11.97 12.48 14.27 16.09 18.94
19.11 14.03 14.28 10.72 14.08 13.30 14.13 17.63 19.00 19.80 13.23 11.70 10.98 14.05 20.05 18.77 16.72 16.57 18.79 20.09 19.74 18.17 18.23 18.40 18.88 19.02 19.36 15.37 13.85 10.85 9.24 10.54 14.53 10.60 6.65 8.66 10.27 10.46 10.03 9.80 9.72 11.51 13.21 16.00
17.91 11.72 10.55 6.54 10.60 9.10 8.30 15.67 18.49 16.54 14.64 18.46 13.08 21.78 16.69 13.54 16.83 14.34 15.15 15.64 15.82 14.33 13.97 15.95 14.92 13.74 16.60 9.61 13.11 4.21 5.58 9.81 6.53 5.57 4.99 5.65 7.61 7.87 8.14 8.58 8.54 9.59 11.47 14.46
15.41 15.13 14.09 3.98 6.36 5.68 18.64 15.95 19.66 20.67 19.88 16.47 13.96 12.62 17.07 10.26 17.07 16.32 14.70 13.81 13.40 11.65 9.80 11.38 12.07 9.87 10.14 8.91 5.08 3.64 4.48 3.53 2.15 2.59 2.59 3.63 4.50 4.87 7.03 6.71 7.41 8.83 12.37 13.27
16.53 17.29 8.65 9.24 5.49 14.33 18.38 15.21 15.74 16.16 17.68 20.93 20.71 17.14 15.77 14.87 16.74 16.09 17.72 11.82 9.20 6.76 5.11 4.21 5.17 3.02 -2.10 -3.02 -2.63 -1.07 0.75 -2.21 -1.89 1.35 2.25 3.79 3.54 4.31 3.92 4.68 6.07 9.27 12.00 13.72
17.67 18.12 19.71 1.90 10.93 6.61 16.72 15.83 19.44 20.72 15.32 21.14 21.91 16.59 13.69 15.10 10.67 13.23 14.12 11.22 5.38 3.35 -1.34 1.15 -3.59 -5.10 -4.23 -4.23 -1.40 3.45 0.07 -2.33 -0.19 3.41 4.87 4.34 3.90 4.15 3.54 5.64 7.75 10.63 12.12 13.94
10.88 13.42 14.11 12.04 12.79 10.69 18.18 18.77 19.35 13.82 19.51 16.57 20.87 18.11 15.57 14.12 15.57 10.10 9.89 7.99 6.36 3.61 0.71 -4.75 -4.85 -2.60 -4.04 -6.86 1.58 1.34 2.56 0.50 3.51 6.14 5.87 4.79 4.74 5.40 7.59 8.78 9.41 10.71 11.65 13.04
13.71 12.94 11.59 7.59 10.38 12.66 19.04 16.92 17.08 20.87 17.04 17.99 18.22 17.25 17.09 13.79 12.03 10.74 8.97 6.99 6.00 1.71 -1.82 0.60 1.34 -1.15 -5.00 -5.83 6.52 4.14 4.96 3.82 5.22 5.56 4.76 4.10 4.71 6.85 8.21 7.51 8.56 9.16 10.22 10.16
14.92 18.38 14.87 17.64 18.16 16.93 22.62 17.04 17.63 14.35 17.07 17.46 17.28 16.55 17.04 13.46 11.40 9.71 8.82 8.89 8.06 6.01 7.38 5.35 5.31 5.94 5.02 5.02 6.98 5.27 4.73 5.38 4.65 2.08 1.32 3.03 5.03 6.46 6.67 6.85 6.64 7.15 7.86 8.17
13.36 10.99 15.77 17.64 17.34 16.01 20.06 13.21 13.81 15.42 15.29 16.34 16.81 16.39 15.69 14.42 11.99 10.48 9.30 9.43 8.78 8.56 7.43 6.07 4.21 4.13 4.17 5.04 5.56 4.23 4.32 4.03 -0.31 -0.86 1.34 4.09 4.33 3.88 5.13 6.23 6.79 6.48 6.55 6.53
14.61 16.32 13.31 13.26 16.42 15.72 17.25 19.16 16.34 16.09 15.87 14.35 12.25 13.31 14.56 13.12 11.83 10.75 9.50 8.51 7.67 7.14 6.54 4.03 2.69 3.32 3.09 3.08 2.39 0.96 2.69 0.46 -1.54 -0.05 1.53 2.82 3.34 2.56 3.51 4.71 4.91 6.66 8.47 10.91
13.91 15.11 17.51 18.82 20.68 19.63 21.15 21.44 18.14 15.62 15.37 15.59 12.82 9.81 11.43 11.69 10.33 8.90 7.58 7.20 6.08 4.55 2.98 1.55 0.92 0.83 -0.07 -1.63 -1.83 -1.67 -4.19 -4.86 -7.14 -0.92 1.10 0.94 1.40 1.42 2.38 2.16 2.59 7.73 10.78 12.68
MSLP
1024.55 1025.26 1026.51 1027.05 1026.74 1026.51 1026.80 1027.54 1028.14 1028.64 1029.10 1029.15 1030.08 1030.91 1031.51 1031.90 1032.22 1032.40 1032.48 1032.48 1032.49 1032.35 1032.31 1031.74 1031.56 1031.63 1031.19 1030.40 1029.75 1029.50 1028.76 1028.19 1026.97 1025.93 1025.31 1024.48 1024.34 1024.10 1023.45 1022.74 1022.14 1021.58 1020.94 1020.23
1025.37 1026.33 1026.88 1027.04 1026.95 1026.98 1027.34 1028.03 1028.75 1029.04 1029.36 1029.53 1030.50 1031.20 1031.41 1031.79 1032.51 1032.84 1032.91 1032.87 1032.95 1032.61 1032.21 1031.83 1031.73 1031.69 1031.44 1031.28 1030.74 1030.00 1029.50 1028.99 1028.20 1027.41 1026.69 1025.99 1025.10 1024.51 1024.56 1024.01 1023.05 1022.44 1021.94 1021.22
1025.85 1026.82 1026.81 1027.05 1027.48 1027.66 1028.25 1028.26 1028.86 1029.24 1029.89 1030.32 1030.60 1031.66 1031.71 1031.82 1032.31 1032.80 1033.09 1033.41 1033.26 1033.03 1032.60 1032.26 1032.09 1032.11 1031.99 1031.52 1031.19 1030.95 1030.42 1029.94 1029.26 1028.47 1027.48 1026.38 1025.84 1025.14 1024.60 1024.32 1023.99 1023.37 1022.80 1021.97
1026.82 1027.09 1027.06 1027.35 1027.76 1028.06 1028.73 1028.87 1029.24 1030.01 1030.81 1031.31 1031.53 1032.22 1032.23 1032.24 1032.60 1033.01 1033.64 1033.73 1033.72 1033.31 1032.87 1032.59 1032.41 1032.27 1032.28 1031.86 1031.47 1031.14 1030.75 1030.09 1029.41 1029.08 1028.53 1027.94 1027.56 1027.28 1026.97 1026.24 1025.32 1024.53 1023.51 1022.91
1027.46 1027.23 1027.27 1027.63 1027.89 1028.26 1029.30 1029.69 1030.25 1031.08 1031.84 1032.30 1032.33 1032.61 1031.78 1032.42 1032.98 1033.47 1033.99 1034.18 1034.15 1033.72 1033.39 1032.98 1032.56 1032.36 1032.28 1032.05 1031.66 1031.44 1031.00 1030.37 1029.97 1029.57 1029.01 1028.52 1028.10 1028.01 1027.62 1026.92 1026.05 1025.14 1024.53 1023.72
1027.60 1027.52 1027.50 1027.75 1028.28 1028.59 1029.57 1030.52 1031.46 1032.54 1033.22 1033.89 1033.56 1033.53 1032.33 1032.56 1032.70 1033.47 1034.02 1034.30 1034.42 1034.17 1033.67 1033.07 1032.70 1032.38 1032.23 1031.91 1031.83 1031.65 1031.46 1031.05 1030.60 1030.17 1029.63 1029.16 1028.54 1027.71 1027.68 1027.30 1026.70 1025.98 1025.32 1024.24
1028.06 1028.13 1028.05 1028.17 1028.79 1029.38 1030.02 1031.06 1032.81 1034.49 1035.43 1035.46 1034.67 1034.25 1032.28 1032.70 1032.81 1033.18 1033.97 1034.48 1034.66 1034.42 1034.05 1033.61 1033.17 1032.73 1032.42 1032.15 1032.15 1032.16 1031.92 1031.37 1031.10 1030.67 1030.01 1029.76 1029.36 1028.86 1028.43 1028.21 1027.73 1026.91 1025.99 1025.13
1027.76 1028.60 1028.49 1028.45 1028.96 1029.34 1030.34 1031.19 1032.74 1034.87 1036.66 1036.36 1035.25 1034.05 1032.68 1032.83 1033.00 1033.39 1033.97 1034.52 1034.76 1034.73 1034.48 1033.93 1033.54 1033.10 1032.66 1032.69 1032.61 1032.51 1032.18 1031.79 1031.60 1031.38 1030.62 1030.17 1029.84 1029.51 1029.04 1028.60 1028.24 1027.89 1027.22 1026.40
1027.09 1028.42 1028.76 1028.86 1029.16 1029.96 1030.75 1031.73 1032.97 1035.18 1037.96 1037.32 1035.49 1033.76 1033.10 1033.34 1033.47 1033.64 1034.13 1034.70 1035.02 1035.02 1034.36 1034.26 1033.82 1033.62 1033.27 1033.21 1033.21 1033.31 1032.89 1032.71 1032.49 1032.20 1031.30 1030.71 1030.29 1029.95 1029.52 1029.03 1028.61 1028.28 1027.81 1026.94
1026.71 1028.42 1029.38 1029.62 1029.71 1030.29 1030.64 1031.78 1033.17 1034.85 1036.97 1037.56 1036.10 1034.43 1032.49 1033.02 1033.00 1033.46 1034.04 1034.55 1035.02 1034.54 1034.77 1034.87 1034.44 1034.17 1034.06 1034.06 1034.07 1033.97 1033.81 1033.72 1033.44 1033.16 1032.35 1031.58 1031.16 1030.69 1030.27 1029.86 1029.20 1028.65 1028.15 1027.53
1026.96 1027.96 1030.46 1030.26 1030.20 1030.49 1031.45 1031.89 1033.34 1034.52 1035.93 1036.89 1036.16 1033.27 1030.81 1030.95 1031.97 1033.00 1033.54 1034.28 1034.59 1035.02 1035.32 1035.32 1034.99 1034.87 1034.75 1034.80 1034.76 1034.73 1034.53 1034.26 1033.99 1033.77 1033.20 1032.54 1032.01 1031.46 1031.05 1030.47 1029.97 1029.44 1028.76 1027.96
1027.24 1028.87 1030.84 1030.85 1030.77 1030.72 1031.11 1031.71 1032.56 1034.49 1036.26 1036.70 1035.97 1032.24 1030.45 1030.93 1031.87 1032.94 1033.58 1034.06 1034.47 1035.05 1035.43 1035.55 1035.27 1035.29 1035.18 1035.35 1035.44 1035.46 1035.27 1035.07 1035.00 1034.73 1034.14 1033.62 1032.97 1032.27 1031.75 1031.32 1030.72 1030.05 1029.31 1028.56
1027.17 1029.19 1031.27 1031.74 1031.98 1031.59 1031.47 1031.70 1032.60 1034.02 1034.89 1035.97 1035.65 1032.28 1031.35 1031.89 1032.59 1033.24 1033.74 1034.01 1034.51 1035.09 1035.57 1035.62 1035.50 1035.53 1035.58 1035.89 1036.21 1036.23 1036.01 1035.88 1035.70 1035.37 1034.89 1034.46 1033.84 1033.25 1032.79 1032.31 1031.59 1030.68 1029.85 1029.05
1027.12 1029.35 1030.30 1030.64 1030.28 1030.30 1031.19 1031.16 1032.05 1032.87 1034.64 1035.05 1033.45 1031.85 1032.09 1032.24 1032.66 1033.39 1033.92 1034.31 1034.74 1035.23 1035.55 1035.60 1035.77 1035.92 1036.13 1036.47 1036.89 1037.01 1036.77 1036.64 1036.37 1036.05 1035.64 1035.20 1034.70 1034.23 1033.73 1033.18 1032.54 1031.67 1030.78 1029.85
1028.15 1029.91 1031.19 1031.38 1031.08 1030.67 1030.29 1030.40 1031.05 1031.82 1031.89 1032.74 1031.13 1031.42 1030.69 1030.99 1031.91 1033.05 1033.70 1034.49 1034.85 1035.39 1035.56 1035.79 1036.20 1036.36 1036.65 1036.97 1037.51 1037.80 1037.66 1037.29 1037.00 1036.70 1036.33 1036.10 1035.55 1034.93 1034.44 1033.69 1032.96 1032.11 1031.24 1030.40
1029.20 1030.13 1031.13 1031.94 1031.67 1031.38 1030.61 1030.06 1030.22 1030.64 1031.17 1031.09 1030.87 1030.32 1029.72 1030.69 1031.82 1033.13 1033.66 1034.31 1034.89 1035.67 1035.89 1036.19 1036.62 1036.78 1036.99 1037.64 1038.04 1038.31 1038.25 1037.98 1037.59 1037.24 1036.89 1036.47 1035.90 1035.25 1034.66 1034.05 1033.39 1032.52 1031.61 1030.82
1029.89 1030.62 1031.91 1032.19 1032.00 1031.38 1030.30 1028.43 1028.19 1028.68 1028.66 1028.78 1030.20 1028.06 1029.82 1031.39 1032.02 1032.64 1033.61 1034.32 1035.20 1035.95 1036.38 1036.71 1037.23 1037.53 1037.78 1038.31 1038.46 1038.73 1038.47 1038.30 1038.07 1037.75 1037.25 1036.74 1036.24 1035.65 1035.03 1034.33 1033.61 1032.93 1032.02 1031.09
1029.76 1030.47 1031.23 1032.34 1032.17 1030.14 1026.41 1025.92 1025.96 1026.50 1026.74 1027.30 1027.70 1028.30 1029.26 1030.38 1031.13 1032.20 1033.15 1034.19 1035.61 1036.32 1036.94 1037.53 1037.96 1038.41 1038.66 1038.92 1039.08 1038.94 1038.70 1038.68 1038.47 1038.01 1037.44 1036.94 1036.38 1035.86 1035.22 1034.52 1033.85 1033.14 1032.38 1031.51
1029.37 1029.61 1031.03 1031.72 1031.17 1027.53 1025.42 1025.63 1025.65 1025.60 1024.60 1024.68 1025.82 1027.85 1029.24 1030.56 1031.64 1032.47 1033.02 1034.09 1035.50 1036.60 1037.32 1038.04 1038.38 1038.93 1039.31 1039.62 1039.33 1039.05 1039.05 1039.00 1038.71 1038.08 1037.56 1037.09 1036.61 1035.99 1035.32 1034.62 1033.91 1033.19 1032.44 1031.68
1029.32 1029.16 1029.18 1031.28 1029.99 1027.06 1024.10 1023.79 1024.12 1024.60 1023.72 1022.23 1024.05 1026.40 1028.62 1030.28 1031.83 1031.36 1032.30 1034.02 1035.75 1036.92 1037.40 1038.15 1038.67 1039.23 1039.51 1039.42 1039.21 1039.14 1039.44 1039.31 1038.61 1037.90 1037.52 1037.11 1036.61 1036.07 1035.41 1034.79 1033.99 1033.23 1032.56 1031.78
1029.16 1029.27 1028.65 1028.89 1027.95 1024.85 1023.20 1023.89 1024.68 1024.90 1022.62 1022.15 1023.40 1025.25 1027.74 1029.19 1029.67 1030.94 1032.53 1034.35 1035.60 1036.43 1037.42 1038.06 1038.61 1039.00 1039.34 1039.14 1039.10 1039.07 1039.32 1039.10 1038.37 1037.87 1037.52 1037.08 1036.53 1035.97 1035.30 1034.72 1034.12 1033.32 1032.52 1031.76
1025.75 1027.13 1027.77 1027.98 1026.81 1024.28 1022.62 1024.76 1024.16 1021.79 1021.92 1022.47 1023.68 1024.89 1026.65 1028.22 1030.03 1031.32 1032.98 1034.30 1035.42 1036.14 1037.18 1037.77 1038.47 1038.75 1038.78 1038.75 1038.74 1038.93 1039.04 1038.70 1038.15 1037.79 1037.49 1037.10 1036.56 1036.00 1035.33 1034.80 1034.19 1033.57 1032.82 1032.07
1024.04 1022.15 1023.20 1023.45 1022.01 1021.41 1020.99 1021.22 1021.58 1021.92 1022.28 1023.13 1023.61 1024.84 1026.10 1028.28 1029.97 1031.31 1032.69 1033.90 1034.82 1035.40 1036.37 1037.30 1037.90 1038.27 1038.47 1038.55 1038.53 1038.81 1038.73 1038.44 1038.14 1037.96 1037.57 1037.11 1036.67 1036.24 1035.71 1035.08 1034.52 1033.89 1033.33 1032.60
1022.62 1021.76 1021.64 1022.05 1020.42 1020.89 1021.28 1021.83 1022.02 1022.35 1022.86 1023.16 1023.78 1024.97 1026.34 1027.96 1029.52 1031.12 1032.30 1033.36 1034.19 1034.81 1035.78 1036.71 1037.54 1038.04 1038.30 1038.41 1038.61 1038.87 1038.71 1038.52 1038.37 1038.06 1037.62 1037.13 1036.79 1036.48 1036.05 1035.54 1034.96 1034.33 1033.72 1032.99
1020.80 1020.97 1021.27 1020.56 1020.17 1021.17 1021.07 1021.05 1021.68 1022.62 1023.33 1023.99 1024.85 1025.40 1026.47 1027.94 1029.56 1030.73 1031.84 1033.02 1033.91 1034.58 1035.65 1036.57 1037.39 1037.86 1038.12 1038.44 1038.83 1038.93 1038.71 1038.63 1038.55 1038.10 1037.62 1037.35 1037.03 1036.62 1036.18 1035.84 1035.26 1034.49 1033.97 1032.98
1019.21 1018.54 1018.74 1017.58 1017.47 1017.92 1018.37 1018.77 1020.69 1022.20 1023.05 1023.80 1024.71 1026.40 1027.29 1028.02 1029.55 1030.73 1031.95 1032.97 1033.83 1034.81 1035.92 1036.89 1037.63 1037.95 1038.19 1038.70 1039.02 1038.94 1038.90 1038.91 1038.80 1038.16 1037.57 1037.42 1037.21 1036.87 1036.41 1036.01 1035.45 1034.90 1033.93 1033.16
Wind_Speed
5 8 5 1 3 4 8 6 5 1 2 4 5 5 4 5 6 7 6 6 6 7 5 4 7 9 11 12 14 14 15 16 13 10 10 8 10 10 11 11 15 15 14 13
7 5 3 4 5 6 5 6 3 2 3 1 5 4 3 4 3 3 5 6 7 6 8 8 9 9 8 9 11 13 14 14 12 8 8 6 8 7 8 10 13 15 15 14
6 5 4 3 2 5 3 6 4 3 1 3 3 3 2 3 2 6 7 4 4 5 7 8 8 7 7 9 10 11 11 12 12 12 8 8 7 7 9 13 12 13 15 14
6 1 4 4 2 2 3 2 5 4 3 2 2 4 5 3 4 8 8 8 7 8 7 5 6 6 6 6 6 7 8 9 10 11 10 12 8 8 8 9 10 11 14 14
2 4 4 3 3 0 4 2 4 3 4 2 4 4 4 3 3 5 6 7 7 7 6 8 9 5 4 4 5 5 6 8 9 7 7 6 7 5 6 8 12 12 12 12
3 1 2 3 3 3 8 6 6 4 2 4 2 4 4 5 5 3 2 5 6 7 8 9 7 6 4 4 4 5 7 9 10 9 10 10 10 8 9 11 10 10 9 10
2 2 1 1 5 2 1 5 4 6 5 5 4 1 7 4 5 5 1 4 6 6 7 7 8 9 5 6 6 6 7 10 12 10 10 10 11 11 11 10 8 12 10 10
7 3 5 1 0 4 3 5 7 7 3 4 3 6 4 5 5 3 1 3 5 7 6 6 8 7 6 6 6 7 9 11 12 11 11 9 10 7 7 8 8 7 7 9
6 2 0 2 2 2 3 2 4 10 2 4 3 6 2 3 4 3 4 4 5 6 7 8 8 7 8 8 10 10 12 12 12 11 10 12 11 12 11 12 10 8 9 9
6 6 0 2 2 4 2 5 4 4 2 4 5 7 7 12 13 6 5 4 4 6 8 7 7 8 9 10 9 11 12 12 12 12 11 10 11 12 11 10 13 12 11 12
4 5 1 2 6 8 1 1 5 5 4 6 2 8 6 15 11 8 5 3 3 4 4 4 5 7 8 9 11 11 12 13 13 12 12 12 11 12 11 11 12 12 12 12
3 6 4 5 1 0 1 5 6 7 6 1 3 10 2 7 8 6 6 2 4 4 2 2 5 7 10 11 11 11 12 12 12 12 12 12 12 13 13 13 13 12 13 12
8 1 4 7 4 2 5 6 4 5 4 7 7 9 3 5 5 5 6 4 3 4 3 3 5 8 9 10 10 11 11 11 12 12 12 12 14 14 13 13 13 14 12 12
8 3 8 10 5 5 7 7 6 7 5 6 9 4 7 11 10 7 6 5 5 4 3 4 6 7 7 8 9 9 10 10 11 11 12 13 13 13 12 11 11 12 12 11
5 6 4 2 2 1 3 7 14 10 9 10 6 12 9 17 15 9 7 7 8 5 3 4 4 4 5 6 7 6 9 10 10 10 9 8 9 9 8 10 11 11 10 10
1 3 4 1 2 3 5 7 12 14 3 9 3 14 7 3 6 7 9 9 8 5 4 3 3 4 5 6 5 6 6 7 10 7 6 7 9 9 9 9 10 10 10 10
6 8 4 6 2 3 8 16 18 8 7 10 9 14 8 5 10 11 10 9 8 7 5 3 2 2 4 3 6 5 6 7 6 5 6 7 8 9 10 10 9 9 10 11
7 7 2 4 1 6 2 2 1 16 6 14 4 5 10 7 4 6 6 10 9 8 6 4 2 3 3 2 4 5 5 6 6 6 6 6 7 7 9 9 10 10 8 9
1 5 3 5 5 10 9 7 10 11 11 21 22 8 5 5 5 5 10 7 8 7 5 4 3 3 1 2 3 3 6 5 4 6 6 6 7 9 9 9 9 9 10 9
2 3 3 4 7 11 6 4 6 5 10 11 20 14 12 9 3 6 12 9 6 6 5 6 4 2 2 4 3 4 5 4 6 7 7 6 7 8 9 9 9 9 8 9
5 2 10 5 6 11 7 7 5 7 10 6 17 16 15 9 6 4 11 6 5 6 7 4 3 3 2 3 3 2 4 4 5 6 7 7 8 9 8 9 9 8 9 9
13 12 6 3 4 20 11 7 12 7 2 7 9 12 12 8 9 10 9 9 8 8 5 5 4 2 2 1 2 3 3 5 4 7 8 8 7 8 8 10 10 10 9 10
7 10 11 14 11 0 23 4 5 4 6 7 9 7 12 11 9 12 9 11 9 9 8 5 4 3 2 1 2 4 4 5 5 7 6 7 7 9 9 9 10 8 9 8
6 3 4 4 7 8 19 1 2 5 5 4 4 10 11 12 11 10 10 9 9 8 7 5 4 3 2 1 2 3 4 5 4 5 5 6 7 8 8 7 7 7 7 7
4 13 8 6 3 2 9 15 8 6 5 6 5 6 11 11 10 11 9 9 8 8 6 5 5 4 3 1 3 3 3 2 4 4 4 5 5 6 6 7 7 7 7 9
8 10 10 11 9 7 7 18 14 13 12 13 11 7 6 8 11 7 8 8 8 8 6 5 4 4 3 2 5 5 3 1 2 3 3 4 4 4 5 6 6 10 12 15
Wind_Direction
11 68 91 64 6 84 102 100 110 47 4 25 59 97 28 6 35 38 35 30 19 28 328 5 11 2 5 15 18 10 10 4 9 10 6 8 8 8 10 7 7 8 3 358
33 95 155 100 59 86 82 115 84 51 359 115 44 92 93 35 32 11 25 23 15 360 359 4 9 6 7 5 7 15 14 6 14 15 4 0 349 3 360 358 9 6 1 359
118 147 137 96 84 90 36 129 156 132 25 73 105 96 113 73 77 37 32 5 8 359 352 355 358 359 353 12 7 8 8 7 11 7 16 23 6 5 4 3 357 354 357 356
91 41 124 115 122 138 145 129 108 114 107 190 27 224 215 180 56 38 17 12 357 354 354 340 349 350 347 360 357 3 4 21 20 14 24 38 40 16 351 344 344 346 355 347
193 136 131 122 168 142 159 87 87 79 88 62 357 75 233 207 90 29 4 0 355 357 1 355 339 318 323 3 6 348 347 18 14 14 29 38 36 24 342 350 347 351 351 349
109 59 71 132 84 68 150 79 58 53 71 38 271 110 238 191 168 123 331 343 346 342 344 353 335 331 324 15 13 4 1 8 2 360 8 13 19 24 15 358 356 349 345 348
43 1 353 118 96 81 116 85 359 359 11 212 347 11 255 159 142 146 159 335 331 327 344 325 335 346 351 20 14 4 0 4 353 348 14 8 9 14 10 358 351 350 349 353
148 288 176 42 184 175 182 156 153 210 205 258 330 242 281 173 149 110 258 286 309 314 299 334 348 348 11 32 29 6 5 8 356 348 7 7 5 3 1 358 354 347 344 343
139 132 103 65 75 80 200 91 140 102 56 44 241 291 216 187 202 196 238 255 286 296 9 357 353 15 43 34 26 19 17 12 5 354 4 10 8 5 358 355 356 352 345 348
197 101 223 143 115 41 177 144 87 3 114 274 285 271 234 206 214 199 215 244 276 31 16 359 21 33 37 34 25 24 23 16 4 357 6 15 10 6 360 355 354 353 347 349
140 100 233 124 202 174 150 60 51 108 128 170 229 257 212 207 179 187 199 216 75 62 33 6 32 45 47 38 29 23 18 15 11 4 7 12 10 11 7 7 359 350 340 349
179 122 159 206 217 204 270 193 155 130 225 157 144 268 308 152 149 166 191 173 112 108 78 48 51 48 46 38 28 21 17 17 10 4 8 11 10 9 10 4 357 355 352 349
186 235 57 353 359 344 213 193 118 110 88 196 140 260 113 125 158 200 194 164 155 125 98 67 62 53 49 41 29 19 17 12 8 5 9 9 9 7 3 355 350 350 351 352
96 99 166 192 173 138 193 178 171 137 132 175 228 246 211 213 208 199 201 181 155 144 127 89 59 59 54 50 32 18 13 7 6 4 8 5 3 360 352 345 345 346 344 345
126 198 135 263 298 287 220 181 183 195 179 178 223 211 191 210 205 201 190 178 170 174 129 71 68 61 69 50 36 17 9 1 357 357 1 348 342 345 342 347 344 341 344 342
180 196 142 234 1 54 263 233 205 218 229 275 162 269 190 144 119 173 191 180 177 190 162 115 74 49 54 32 20 2 347 343 348 338 341 336 345 344 345 342 338 337 340 342
159 135 119 254 0 346 299 212 206 194 200 199 205 236 163 184 192 194 189 188 187 187 182 174 165 110 67 51 10 336 325 323 326 330 333 339 341 344 341 335 334 338 335 334
154 127 87 169 23 267 257 27 233 218 210 215 262 203 180 188 171 172 185 177 190 184 188 206 127 113 67 28 345 315 338 334 336 338 333 329 332 334 334 333 334 332 330 331
160 137 129 165 204 315 266 196 176 172 256 208 222 174 156 126 92 249 185 171 178 185 175 175 169 146 103 342 301 355 348 332 336 337 330 327 329 329 325 328 325 325 328 327
125 62 158 130 200 221 247 150 153 139 282 202 194 167 152 141 159 238 164 151 158 166 162 156 149 129 52 329 350 12 328 330 336 337 332 322 324 325 321 314 320 321 317 317
135 106 202 178 229 280 220 162 158 118 238 155 172 158 155 182 188 147 126 125 151 156 153 149 131 146 225 297 329 352 300 321 312 329 329 331 332 328 321 329 325 322 325 325
163 156 181 114 211 255 148 81 177 200 24 146 149 158 170 124 126 138 149 151 159 151 147 156 149 169 253 260 347 308 315 299 321 342 338 334 334 335 340 335 336 338 338 339
204 190 173 189 206 209 180 180 192 156 155 177 145 152 147 139 160 160 166 163 169 161 156 156 142 134 153 172 335 308 315 328 344 339 326 332 336 345 341 345 344 343 347 348
254 155 179 122 208 198 208 253 222 185 186 136 122 136 149 156 152 163 157 163 162 152 149 138 142 169 198 132 318 297 310 339 339 319 332 346 349 344 345 344 345 339 343 337
188 144 162 273 234 30 255 218 176 180 141 117 90 134 154 138 163 162 160 162 159 150 143 144 164 189 199 215 273 269 307 338 328 317 338 344 344 339 341 344 334 339 333 320
198 167 180 217 185 176 209 194 171 169 180 167 142 128 140 142 155 149 152 157 154 150 142 152 184 197 202 224 264 269 268 237 268 329 358 344 332 337 339 334 328 335 339 341